EW4074 Weather Reports


Display with metric or nautical units.
time (UTC)temp
F
wind
direction
speed
MPH
gust
MPH
rain 1hr
in
rain 24hr
in
rain mn
in
humidity
%
barometer
mb
20260507115441 51 96 0.0 3.0 0.00 0.09 0.00 65 1041.2
20260507114932 51 87 0.0 3.0 0.00 0.10 0.00 66 1041.1
20260507114426 51 178 0.0 3.0 0.00 0.10 0.00 67 1041.1
20260507113915 51 26 0.0 4.0 0.00 0.11 0.00 69 1041.1
20260507113415 51 42 0.0 4.0 0.00 0.12 0.00 71 1040.8
20260507113123 51 121 0.0 2.0 0.00 0.12 0.00 67 1040.8
20260507112402 51 130 0.0 2.0 0.00 0.13 0.00 66 1040.8
20260507112342 51 29 0.0 2.0 0.00 0.13 0.00 72 1040.9
20260507111351 51 92 0.0 2.0 0.00 0.13 0.00 72 1040.9
20260507110844 51 117 0.0 2.0 0.00 0.14 0.00 67 1040.9
20260507110339 51 227 0.0 3.0 0.00 0.14 0.00 72 1040.8
20260507105832 51 300 0.0 3.0 0.00 0.14 0.00 69 1040.8
20260507105321 51 300 0.0 2.0 0.00 0.15 0.00 73 1040.8
20260507104820 51 108 0.0 3.0 0.00 0.15 0.00 73 1040.7
20260507104314 51 97 0.0 3.0 0.00 0.15 0.00 72 1040.7
20260507103808 50 245 0.0 0.0 0.00 0.15 0.00 74 1040.7
20260507103302 51 165 0.0 3.0 0.00 0.15 0.00 78 1040.3
20260507103021 50 165 0.0 3.0 0.00 0.15 0.00 76 1040.3
20260507102249 50 268 0.0 0.0 0.00 0.15 0.00 82 1040.3
20260507101739 51 268 0.0 0.0 0.00 0.15 0.00 81 1040.3
20260507101237 51 268 0.0 0.0 0.00 0.15 0.00 82 1040.3
20260507100959 51 267 0.0 0.0 0.00 0.15 0.00 83 1040.3
20260507100226 51 268 0.0 1.0 0.00 0.15 0.00 82 1040.2
20260507095720 51 268 0.0 1.0 0.00 0.15 0.00 84 1040.2
20260507095214 51 267 0.0 1.0 0.00 0.15 0.00 82 1040.2
20260507094708 51 61 0.0 0.0 0.00 0.15 0.00 84 1040.0
20260507094158 51 61 0.0 0.0 0.00 0.15 0.00 83 1040.0
20260507093924 51 61 0.0 0.0 0.00 0.15 0.00 81 1040.0
20260507093422 51 61 0.0 0.0 0.00 0.15 0.00 80 1039.8
20260507092914 52 61 0.0 0.0 0.00 0.15 0.00 79 1039.8
20260507092138 52 61 0.0 0.0 0.00 0.15 0.00 78 1039.8
20260507091628 52 61 0.0 0.0 0.00 0.15 0.00 77 1039.9
20260507091124 52 61 0.0 0.0 0.00 0.15 0.00 78 1039.9
20260507090618 52 61 0.0 2.0 0.00 0.15 0.00 79 1040.1
20260507090108 52 61 0.0 3.0 0.00 0.15 0.00 76 1040.1
20260507085602 52 346 1.0 3.0 0.00 0.15 0.00 77 1040.1
20260507085059 52 157 1.0 5.0 0.00 0.15 0.00 77 1039.9
20260507084824 52 70 0.0 5.0 0.00 0.15 0.00 81 1039.9
20260507084059 52 283 0.0 0.0 0.00 0.15 0.00 83 1039.9
20260507083600 52 283 0.0 0.0 0.00 0.15 0.00 83 1039.9
20260507083059 53 283 0.0 0.0 0.00 0.15 0.00 83 1039.9
20260507082559 53 282 0.0 0.0 0.00 0.15 0.00 83 1039.9
20260507082100 53 308 0.0 1.0 0.00 0.15 0.00 81 1039.7
20260507082046 53 309 0.0 1.0 0.00 0.15 0.00 81 1039.7
20260507081054 53 258 0.0 0.0 0.00 0.15 0.00 80 1039.7
20260507080542 53 258 0.0 2.0 0.00 0.15 0.00 80 1039.5
20260507080030 53 21 0.0 2.0 0.00 0.15 0.00 80 1039.5
20260507075745 53 294 0.0 2.0 0.00 0.15 0.00 81 1039.5
20260507075024 53 55 0.0 3.0 0.00 0.15 0.00 81 1039.3
20260507074746 53 311 1.0 5.0 0.00 0.15 0.00 81 1039.3
20260507074024 53 55 0.0 5.0 0.00 0.15 0.00 82 1039.3
20260507073524 53 129 0.0 1.0 0.00 0.15 0.00 85 1039.2
20260507073023 53 291 0.0 1.0 0.00 0.15 0.00 85 1039.2
20260507072524 53 92 0.0 1.0 0.00 0.15 0.00 84 1039.2
20260507072023 53 246 0.0 1.0 0.00 0.15 0.00 84 1039.1
20260507071739 53 246 0.0 2.0 0.00 0.15 0.00 84 1039.1
20260507071015 53 230 0.0 2.0 0.00 0.15 0.00 85 1039.1
20260507070740 53 265 0.0 1.0 0.00 0.15 0.00 84 1039.4
20260507070004 53 270 0.0 1.0 0.00 0.15 0.00 85 1039.4
20260507065945 53 163 0.0 1.0 0.00 0.15 0.00 85 1039.4
20260507064956 53 53 0.0 1.0 0.00 0.15 0.00 85 1039.7
20260507064939 53 194 0.0 1.0 0.00 0.15 0.00 84 1039.7
20260507063943 53 267 0.0 1.0 0.00 0.15 0.00 85 1039.7
20260507063921 53 33 0.0 1.0 0.00 0.15 0.00 84 1039.8
20260507062931 54 259 0.0 1.0 0.00 0.15 0.00 85 1039.8
20260507062646 54 302 0.0 1.0 0.00 0.15 0.00 84 1039.8
20260507061915 54 273 0.0 0.0 0.00 0.15 0.00 84 1040.1
20260507061411 54 273 0.0 1.0 0.00 0.15 0.00 83 1040.1
20260507061344 54 273 0.0 1.0 0.00 0.15 0.00 83 1040.1
20260507060358 54 278 0.0 1.0 0.00 0.15 0.00 83 1040.2
20260507055851 54 282 0.0 2.0 0.00 0.15 0.00 82 1040.2
20260507055342 54 281 0.0 2.0 0.00 0.15 0.00 83 1040.2
20260507054839 54 117 0.0 2.0 0.00 0.15 0.00 82 1040.1
20260507054335 54 88 0.0 2.0 0.00 0.15 0.00 82 1040.1
20260507054054 54 250 0.0 1.0 0.00 0.15 0.00 82 1040.1
20260507053322 54 89 0.0 1.0 0.00 0.15 0.00 82 1039.7
20260507052815 54 89 0.0 1.0 0.00 0.15 0.00 82 1039.7
20260507052311 55 315 0.0 1.0 0.00 0.15 0.00 83 1039.7
20260507051759 55 293 0.0 7.0 0.00 0.15 0.00 83 1039.5
20260507051259 55 328 0.0 7.0 0.00 0.15 0.00 82 1039.5
20260507050751 55 119 0.0 1.0 0.00 0.15 0.00 83 1039.5
20260507050512 55 119 0.0 1.0 0.00 0.15 0.00 83 1039.5
20260507045739 55 254 0.0 1.0 0.00 0.15 0.00 83 1039.5
20260507045234 55 177 0.0 2.0 0.00 0.15 0.00 83 1039.5
20260507045207 55 281 0.0 2.0 0.00 0.15 0.00 83 1039.5
20260507044223 55 175 0.0 2.0 0.00 0.15 0.00 83 1039.5
20260507043715 55 246 1.0 5.0 0.00 0.15 0.00 84 1039.5
20260507043205 55 59 1.0 5.0 0.00 0.15 0.00 83 1039.3
20260507042703 55 332 1.0 5.0 0.00 0.15 0.00 83 1039.3
20260507042157 55 150 1.0 5.0 0.00 0.15 0.00 84 1039.3
20260507041651 55 350 1.0 5.0 0.00 0.15 0.00 84 1039.5
20260507041145 55 248 0.0 2.0 0.00 0.15 0.00 85 1039.5
20260507040634 56 118 0.0 2.0 0.00 0.15 0.00 85 1039.5
20260507040133 56 230 1.0 7.0 0.00 0.15 0.00 85 1040.0
20260507035623 56 42 1.0 7.0 0.00 0.15 0.15 86 1040.0
20260507035121 56 263 1.0 4.0 0.00 0.15 0.15 86 1039.1
20260507034615 56 224 1.0 4.0 0.00 0.15 0.15 86 1039.1
20260507034109 56 72 0.0 4.0 0.00 0.15 0.15 86 1039.1
20260507033603 56 217 0.0 2.0 0.00 0.15 0.15 86 1039.4
20260507033053 56 100 0.0 2.0 0.00 0.15 0.15 86 1039.4
20260507032551 56 98 0.0 3.0 0.00 0.15 0.15 85 1039.4
20260507032045 57 221 1.0 5.0 0.00 0.15 0.15 85 1039.7
20260507031540 57 219 1.0 5.0 0.00 0.15 0.15 85 1039.7
20260507031254 57 189 1.0 5.0 0.00 0.15 0.15 86 1039.7
20260507030744 57 310 1.0 7.0 0.00 0.15 0.15 85 1039.7
20260507030233 57 323 1.0 7.0 0.00 0.15 0.15 86 1039.7
20260507025737 57 38 1.0 3.0 0.00 0.15 0.15 84 1039.7
20260507025228 57 128 1.0 4.0 0.00 0.15 0.15 84 1039.2
20260507024726 58 11 1.0 4.0 0.00 0.15 0.15 84 1039.2
20260507023954 58 113 1.0 5.0 0.00 0.15 0.15 84 1039.2
20260507023447 58 157 1.0 5.0 0.00 0.15 0.15 84 1039.1
20260507022942 58 91 1.0 5.0 0.00 0.15 0.15 84 1039.1
20260507022430 58 206 1.0 5.0 0.00 0.15 0.15 84 1039.1
20260507021929 58 331 1.0 4.0 0.00 0.15 0.15 84 1038.9
20260507021419 58 99 1.0 4.0 0.00 0.15 0.15 85 1038.9
20260507021145 58 196 0.0 0.0 0.00 0.15 0.15 86 1038.9
20260507020411 58 196 0.0 0.0 0.00 0.15 0.15 86 1038.8
20260507015905 58 197 0.0 0.0 0.00 0.15 0.15 84 1038.8
20260507015359 58 44 0.0 0.0 0.00 0.15 0.15 85 1038.8
20260507014853 59 223 0.0 2.0 0.00 0.15 0.15 83 1038.6
20260507014347 59 222 1.0 9.0 0.00 0.15 0.15 84 1038.6
20260507013837 59 79 1.0 9.0 0.00 0.15 0.15 84 1038.6
20260507013335 59 125 2.0 11.0 0.00 0.15 0.15 83 1038.6
20260507012828 59 279 2.0 11.0 0.00 0.15 0.15 83 1038.6
20260507012323 59 301 2.0 11.0 0.00 0.15 0.15 84 1038.6
20260507011817 59 98 1.0 8.0 0.00 0.15 0.15 85 1038.6
20260507011307 59 138 0.0 6.0 0.00 0.15 0.15 85 1038.6
20260507010805 59 284 1.0 5.0 0.00 0.15 0.15 85 1038.6
20260507010305 60 13 1.0 6.0 0.00 0.15 0.15 83 1038.1
20260507005805 60 56 1.0 6.0 0.00 0.15 0.15 83 1038.1
20260507005309 60 200 0.0 4.0 0.00 0.15 0.15 83 1038.1
20260507005020 60 277 1.0 6.0 0.00 0.15 0.15 83 1038.6
20260507004301 60 311 2.0 6.0 0.00 0.15 0.15 83 1038.6
20260507003801 60 290 2.0 9.0 0.00 0.15 0.15 83 1038.6
20260507003302 60 246 1.0 9.0 0.00 0.15 0.15 83 1038.3
20260507002759 60 212 1.0 3.0 0.00 0.15 0.15 84 1038.3
20260507002258 61 261 1.0 3.0 0.00 0.15 0.15 84 1038.3
20260507001759 61 136 1.0 3.0 0.00 0.15 0.15 84 1038.3
20260507001256 61 257 2.0 8.0 0.00 0.15 0.15 84 1038.3
20260507000755 61 107 2.0 8.0 0.00 0.15 0.15 84 1038.3
20260507000254 61 69 1.0 3.0 0.00 0.15 0.15 85 1037.9
20260506235757 61 293 1.0 3.0 0.00 0.15 0.15 85 1037.9
20260506235258 62 49 1.0 5.0 0.00 0.15 0.15 84 1037.9
20260506234752 62 244 1.0 7.0 0.00 0.15 0.15 85 1037.5
20260506234241 62 55 1.0 7.0 0.00 0.15 0.15 85 1037.5
20260506233959 62 237 2.0 7.0 0.00 0.15 0.15 85 1037.5
20260506233238 62 20 2.0 7.0 0.00 0.15 0.15 84 1037.5
20260506232739 62 176 2.0 7.0 0.00 0.15 0.15 84 1037.5
20260506232502 63 216 2.0 12.0 0.00 0.15 0.15 84 1037.5
20260506232010 63 251 3.0 12.0 0.00 0.15 0.15 85 1037.0
20260506231239 63 238 2.0 7.0 0.00 0.15 0.15 84 1037.0
20260506230742 64 36 1.0 7.0 0.00 0.15 0.15 85 1037.0
20260506230242 64 126 1.0 6.0 0.00 0.15 0.15 86 1036.6
20260506225736 64 288 1.0 6.0 0.00 0.15 0.15 85 1036.6
20260506225225 64 117 2.0 8.0 0.00 0.15 0.15 85 1036.6
20260506224938 64 12 3.0 9.0 0.00 0.15 0.15 84 1036.7
20260506224422 64 221 2.0 9.0 0.00 0.15 0.15 85 1036.7
20260506223914 65 267 2.0 9.0 0.00 0.15 0.15 85 1036.7
20260506223135 65 243 1.0 4.0 0.00 0.15 0.15 86 1036.9
20260506222626 65 296 2.0 6.0 0.00 0.15 0.15 86 1036.9
20260506222114 65 272 2.0 6.0 0.00 0.15 0.15 85 1036.7
20260506221609 65 263 2.0 6.0 0.00 0.15 0.15 85 1036.7
20260506221057 66 212 2.0 6.0 0.00 0.15 0.15 85 1036.7
20260506220819 66 283 1.0 5.0 0.00 0.15 0.15 85 1036.5
20260506220042 66 296 2.0 5.0 0.00 0.15 0.15 85 1036.5
20260506215544 66 244 2.0 5.0 0.00 0.15 0.15 85 1036.5
20260506215038 67 138 1.0 3.0 0.00 0.15 0.15 85 1036.1
20260506214532 67 19 1.0 4.0 0.00 0.15 0.15 85 1036.1
20260506214244 67 292 2.0 8.0 0.00 0.15 0.15 85 1036.1
20260506213520 67 244 2.0 8.0 0.00 0.15 0.15 85 1036.1
20260506213013 67 238 2.0 8.0 0.00 0.15 0.15 85 1036.1
20260506212503 68 55 2.0 8.0 0.00 0.15 0.15 84 1036.1
20260506211959 68 84 2.0 6.0 0.00 0.15 0.15 84 1036.0
20260506211449 69 234 1.0 4.0 0.00 0.15 0.15 81 1036.0
20260506210948 69 153 1.0 4.0 0.00 0.15 0.15 81 1036.0
20260506210442 69 232 0.0 3.0 0.00 0.15 0.15 82 1035.5
20260506205936 70 249 1.0 4.0 0.00 0.15 0.15 81 1035.5
20260506205430 70 292 0.0 4.0 0.00 0.15 0.15 81 1035.5
20260506204924 71 270 1.0 2.0 0.00 0.15 0.15 79 1035.4
20260506204418 71 103 1.0 4.0 0.00 0.15 0.15 80 1035.4
20260506204126 71 258 1.0 4.0 0.00 0.15 0.15 78 1035.4
20260506203623 71 221 1.0 2.0 0.00 0.15 0.15 79 1035.4
20260506202902 71 245 1.0 4.0 0.00 0.15 0.15 80 1035.4
20260506202353 70 259 1.0 4.0 0.00 0.15 0.15 82 1035.4
20260506201848 70 196 0.0 1.0 0.00 0.15 0.15 83 1035.4
20260506201341 70 292 0.0 1.0 0.00 0.15 0.15 84 1035.4
20260506200836 70 236 0.0 0.0 0.00 0.15 0.15 82 1035.4
20260506200332 70 237 0.0 0.0 0.00 0.15 0.15 83 1035.4
20260506195830 70 264 0.0 0.0 0.00 0.15 0.15 83 1035.4
20260506195330 69 276 0.0 0.0 0.00 0.15 0.15 84 1035.4
20260506194828 69 250 0.0 0.0 0.00 0.15 0.15 86 1035.4
20260506194326 68 250 0.0 0.0 0.00 0.15 0.15 86 1035.4
20260506194305 68 186 0.0 0.0 0.00 0.15 0.15 87 1035.4
20260506193325 67 257 0.0 0.0 0.00 0.15 0.15 86 1035.5
20260506192826 67 227 0.0 0.0 0.00 0.15 0.15 86 1035.5
20260506192557 68 254 0.0 0.0 0.00 0.15 0.15 87 1035.5
20260506191829 68 235 0.0 0.0 0.00 0.15 0.15 86 1035.6
20260506191323 69 228 0.0 0.0 0.00 0.15 0.15 86 1035.6
20260506190812 69 222 0.0 0.0 0.00 0.15 0.15 86 1035.6
20260506190533 69 222 0.0 1.0 0.00 0.15 0.15 84 1035.5
20260506190249 69 224 1.0 3.0 0.00 0.15 0.15 85 1035.5
20260506185309 69 224 1.0 4.0 0.00 0.15 0.15 84 1035.5
20260506184809 69 263 1.0 4.0 0.00 0.15 0.15 83 1035.6
20260506184527 69 258 1.0 4.0 0.00 0.15 0.15 83 1035.6
20260506183809 69 223 1.0 3.0 0.00 0.15 0.15 83 1035.6
20260506183313 69 310 1.0 3.0 0.00 0.15 0.15 85 1035.6
20260506183035 68 263 0.0 3.0 0.00 0.15 0.15 85 1035.6
20260506182307 68 243 0.0 3.0 0.00 0.15 0.15 84 1035.6
20260506181756 68 259 0.0 2.0 0.00 0.15 0.15 85 1035.6
20260506181243 68 254 0.0 1.0 0.00 0.15 0.15 85 1035.6
20260506180731 67 201 0.0 2.0 0.00 0.15 0.15 84 1035.6
20260506180215 67 187 1.0 2.0 0.00 0.15 0.15 83 1035.8
20260506175747 67 190 1.0 3.0 0.00 0.15 0.15 84 1035.8
20260506174647 67 219 2.0 7.0 0.00 0.15 0.15 83 1035.8
20260506174139 67 163 2.0 7.0 0.00 0.15 0.15 84 1035.8
20260506173903 67 190 2.0 7.0 0.00 0.15 0.15 85 1035.8
20260506173129 67 244 1.0 7.0 0.00 0.15 0.15 84 1035.9
20260506172622 67 285 1.0 6.0 0.00 0.15 0.15 84 1035.9
20260506172111 67 265 2.0 6.0 0.00 0.15 0.15 84 1035.7
20260506171611 67 252 1.0 5.0 0.00 0.15 0.15 85 1035.7
20260506171103 67 248 1.0 5.0 0.00 0.15 0.15 85 1035.7
20260506170557 67 221 1.0 5.0 0.00 0.15 0.15 84 1035.6
20260506170051 67 248 1.0 5.0 0.00 0.15 0.15 85 1035.6
20260506165545 67 240 1.0 5.0 0.00 0.15 0.15 85 1035.6
20260506165037 67 256 2.0 5.0 0.00 0.15 0.15 84 1035.8
20260506164531 67 211 3.0 8.0 0.00 0.15 0.15 84 1035.8
20260506164025 67 223 2.0 8.0 0.00 0.15 0.15 84 1035.8
20260506163516 67 269 3.0 10.0 0.00 0.15 0.15 84 1035.6
20260506163014 67 134 3.0 10.0 0.00 0.15 0.15 83 1035.6
20260506162509 68 196 3.0 8.0 0.00 0.15 0.15 83 1035.6
20260506162001 68 191 3.0 8.0 0.00 0.15 0.15 83 1035.6
20260506161456 68 226 4.0 9.0 0.00 0.15 0.15 83 1035.6
20260506160949 68 217 4.0 10.0 0.00 0.15 0.15 83 1035.6
20260506160444 68 166 4.0 10.0 0.00 0.15 0.15 85 1035.5
20260506160152 68 168 4.0 12.0 0.00 0.15 0.15 85 1035.5
20260506155433 67 155 4.0 12.0 0.00 0.15 0.15 87 1035.5
20260506154926 67 34 4.0 10.0 0.00 0.15 0.15 87 1035.7
20260506154636 66 242 4.0 10.0 0.00 0.15 0.15 88 1035.7
20260506153913 65 149 4.0 10.0 0.00 0.15 0.15 89 1035.7
20260506153407 65 201 3.0 9.0 0.00 0.15 0.15 89 1035.9
20260506152901 64 190 3.0 14.0 0.00 0.15 0.15 90 1035.9
20260506152351 64 155 3.0 14.0 0.00 0.15 0.15 90 1035.9
20260506152118 64 251 3.0 9.0 0.01 0.15 0.15 91 1035.8
20260506151338 63 248 4.0 9.0 0.01 0.15 0.15 92 1035.8
20260506150838 63 179 3.0 8.0 0.01 0.15 0.15 93 1035.8
20260506150331 63 217 2.0 8.0 0.01 0.15 0.15 93 1035.9
20260506145825 63 98 2.0 6.0 0.01 0.15 0.15 94 1035.9
20260506145314 62 139 2.0 6.0 0.02 0.15 0.15 93 1035.9
20260506144809 62 215 1.0 3.0 0.02 0.15 0.15 95 1036.0
20260506144307 62 184 1.0 3.0 0.02 0.15 0.15 95 1036.0
20260506143801 61 126 2.0 4.0 0.02 0.15 0.15 95 1036.0
20260506143747 61 190 2.0 4.0 0.02 0.15 0.15 95 1035.9
20260506142749 61 154 1.0 4.0 0.02 0.15 0.15 95 1035.9
20260506142243 60 162 1.0 4.0 0.01 0.14 0.15 95 1035.9
20260506141738 60 106 1.0 4.0 0.01 0.14 0.14 95 1036.1
20260506141449 60 143 1.0 3.0 0.02 0.14 0.14 95 1036.1
20260506140726 60 243 0.0 1.0 0.02 0.14 0.14 95 1036.1
20260506140214 60 157 1.0 4.0 0.02 0.14 0.14 95 1036.3
20260506135714 60 173 1.0 4.0 0.02 0.14 0.14 95 1036.3
20260506135208 60 182 1.0 4.0 0.02 0.13 0.13 95 1036.3
20260506134701 60 211 1.0 5.0 0.02 0.13 0.13 95 1036.6
20260506134155 60 155 1.0 5.0 0.04 0.13 0.13 95 1036.6
20260506133910 60 221 1.0 5.0 0.04 0.13 0.13 94 1036.6
20260506133143 60 138 1.0 5.0 0.05 0.13 0.13 94 1036.4
20260506132637 60 150 1.0 4.0 0.05 0.13 0.13 94 1036.4
20260506132132 60 236 1.0 3.0 0.06 0.13 0.13 95 1036.4
20260506131850 60 215 1.0 3.0 0.07 0.13 0.13 95 1036.1
20260506131603 60 149 0.0 0.0 0.06 0.12 0.12 95 1036.1
20260506130613 60 149 0.0 1.0 0.06 0.12 0.12 95 1036.5
20260506130103 59 149 0.0 2.0 0.06 0.12 0.12 95 1036.5
20260506125601 59 141 0.0 2.0 0.06 0.12 0.12 95 1036.5
20260506125321 59 158 0.0 2.0 0.06 0.11 0.11 94 1036.5
20260506124549 59 168 0.0 2.0 0.05 0.10 0.11 94 1036.5
20260506124043 59 155 0.0 1.0 0.05 0.09 0.09 94 1036.5
20260506123537 59 162 0.0 2.0 0.06 0.09 0.09 94 1036.5
20260506123031 59 157 0.0 2.0 0.05 0.08 0.08 94 1036.5
20260506122521 59 157 0.0 2.0 0.06 0.08 0.08 94 1036.5
20260506122019 58 149 0.0 2.0 0.05 0.07 0.07 94 1036.7
20260506121735 58 161 0.0 2.0 0.04 0.06 0.06 94 1036.7
20260506121007 58 257 0.0 1.0 0.05 0.06 0.06 94 1036.7
20260506120500 58 218 0.0 0.0 0.05 0.06 0.06 95 1036.5
20260506120212 58 159 0.0 0.0 0.05 0.06 0.06 95 1036.5